Starlink 2565

operational
NORAD ID: 48280 Int'l Des: 2021-036 Owner: SPXS Country: US Constellation: starlink
LEOCIRCULARSTARLINK_TYPE

About Starlink 2565

Description loading...

Live Position

Loading 3D Globe...

Upcoming Passes

Altitude History

Altitude vs Time

uPlot chart will show altitude changes over time

Two-Line Element Set

1 48280U 21036E 25302.79604270 .00009450 00000-0 65210-3 0 9996
2 48280 53.0550 324.2219 0001522 89.4622 270.6542 15.06420680248378
Epoch: Oct 29, 2025 • Age: 30 hours

Current Status

Altitude 566.6 km
Velocity 7.58 km/s
Sub-Earth Point -53.17°S, 177.44°E
Launch Date Apr 29, 2021
Age 4.5 years
Type internet

Technical Details

Classification Payload
Mass 260.00 kg
Dry Mass 248.00 kg
Total Mass 260.00 kg
Length 0.20 m
Diameter 2.80 m
Span 9.00 m
Shape Box + pan
Manufacturer SPXS
Bus Type Starlink
Phase Status In Orbit
Owner/State SPXS/US

Large Constellations

Loading constellations...